SIA7439 PHNL-YSSY

Flight info

Callsign SIA7439
Flight time N/A
Altitude 32000
Route OPIHI3 CARRP DCT 1808N16024W 1114N16604W 0802N16855W 0043N17547W/N0497F340 0254S17907W 0356S18000W 0729S17657E 1101S17402E 1453S17046E 1739S16817E/N0489F360 2211S16426E 2415S16300E 2622S16129E 2810S16020E 3030S15900E 3153S15741E DCT SOTKI G595 ATNAT DCT RIKNI N774 MARLN
Aircraft B77L/H-SDE1E2E3FGHIJ2J3J4J5M1RWXY/LB1D1

Departure

Time 2026-05-07 13:29
Airport Daniel K. Inouye International Airport (PHNL)

Arrival

Time N/A
Airport Sydney Kingsford Smith International Airport (YSSY)
Time Latitude Longitude Altitude Speed Heading
2026-05-07 12:59 21.32981 -157.91246 28 ft 0 kts 323°
2026-05-07 13:12 21.32978 -157.91243 28 ft 3 kts 323°
2026-05-07 13:12 21.32957 -157.91226 28 ft 4 kts 323°
2026-05-07 13:12 21.32935 -157.91209 26 ft 3 kts 323°
2026-05-07 13:12 21.32918 -157.91197 26 ft 4 kts 352°
2026-05-07 13:13 21.32900 -157.91204 26 ft 3 kts 52°
2026-05-07 13:13 21.32884 -157.91226 27 ft 3 kts 52°
2026-05-07 13:13 21.32882 -157.91229 26 ft 1 kts 52°
2026-05-07 13:19 21.32883 -157.91227 27 ft 4 kts 52°
2026-05-07 13:19 21.32932 -157.91158 27 ft 14 kts 52°
2026-05-07 13:19 21.32990 -157.91078 28 ft 14 kts 52°
2026-05-07 13:20 21.33000 -157.90991 28 ft 11 kts 114°
2026-05-07 13:20 21.33021 -157.90896 28 ft 17 kts 59°
2026-05-07 13:20 21.33037 -157.90779 27 ft 16 kts 107°
2026-05-07 13:20 21.32960 -157.90696 28 ft 16 kts 147°
2026-05-07 13:21 21.32868 -157.90625 28 ft 16 kts 142°
2026-05-07 13:21 21.32776 -157.90559 28 ft 16 kts 172°
2026-05-07 13:21 21.32692 -157.90630 28 ft 16 kts 233°
2026-05-07 13:21 21.32626 -157.90726 28 ft 16 kts 233°
2026-05-07 13:22 21.32560 -157.90820 28 ft 16 kts 234°
2026-05-07 13:22 21.32506 -157.90924 28 ft 16 kts 238°
2026-05-07 13:22 21.32438 -157.91018 28 ft 16 kts 233°
2026-05-07 13:22 21.32373 -157.91114 28 ft 16 kts 233°
2026-05-07 13:23 21.32306 -157.91209 28 ft 16 kts 233°
2026-05-07 13:23 21.32239 -157.91304 28 ft 16 kts 233°
2026-05-07 13:23 21.32172 -157.91399 28 ft 16 kts 233°
2026-05-07 13:23 21.32105 -157.91493 28 ft 16 kts 233°
2026-05-07 13:24 21.32039 -157.91589 28 ft 16 kts 232°
2026-05-07 13:24 21.31954 -157.91665 28 ft 16 kts 215°
2026-05-07 13:24 21.31872 -157.91744 28 ft 16 kts 230°
2026-05-07 13:24 21.31804 -157.91839 28 ft 16 kts 233°
2026-05-07 13:25 21.31738 -157.91934 29 ft 16 kts 233°
2026-05-07 13:25 21.31670 -157.92028 29 ft 16 kts 233°
2026-05-07 13:25 21.31603 -157.92123 29 ft 16 kts 233°
2026-05-07 13:25 21.31537 -157.92218 29 ft 16 kts 233°
2026-05-07 13:26 21.31471 -157.92313 29 ft 16 kts 233°
2026-05-07 13:26 21.31405 -157.92408 29 ft 16 kts 233°
2026-05-07 13:26 21.31338 -157.92502 27 ft 16 kts 233°
2026-05-07 13:26 21.31300 -157.92607 29 ft 16 kts 291°
2026-05-07 13:27 21.31368 -157.92678 29 ft 10 kts 325°
2026-05-07 13:27 21.31431 -157.92662 29 ft 10 kts 48°
2026-05-07 13:27 21.31439 -157.92651 29 ft 0 kts 52°
2026-05-07 13:28 21.31470 -157.92608 29 ft 36 kts 52°
2026-05-07 13:28 21.31805 -157.92134 29 ft 121 kts 53°
2026-05-07 13:28 21.32470 -157.91196 31 ft 193 kts 53°
2026-05-07 13:28 21.33295 -157.89985 592 ft 199 kts 52°
2026-05-07 13:29 21.34083 -157.88821 1500 ft 192 kts 53°
2026-05-07 13:29 21.34819 -157.87670 2256 ft 185 kts 63°
2026-05-07 13:29 21.35077 -157.86258 2413 ft 209 kts 95°
2026-05-07 13:29 21.34531 -157.84769 2771 ft 223 kts 125°
2026-05-07 13:30 21.33256 -157.83734 3159 ft 242 kts 158°
2026-05-07 13:30 21.31520 -157.83471 3387 ft 265 kts 188°
2026-05-07 13:30 21.29711 -157.83919 3932 ft 270 kts 195°
2026-05-07 13:30 21.27884 -157.84460 4715 ft 272 kts 196°
2026-05-07 13:31 21.26062 -157.85006 5539 ft 272 kts 196°
2026-05-07 13:31 21.24242 -157.85552 6373 ft 271 kts 196°
2026-05-07 13:31 21.22422 -157.86096 7120 ft 273 kts 196°
2026-05-07 13:31 21.20573 -157.86648 7746 ft 279 kts 196°
2026-05-07 13:32 21.19373 -157.87031 8142 ft 279 kts 203°
2026-05-07 13:32 21.17802 -157.88225 8635 ft 283 kts 233°
2026-05-07 13:32 21.16745 -157.90001 9172 ft 286 kts 238°
2026-05-07 13:32 21.15658 -157.91799 9866 ft 288 kts 236°
2026-05-07 13:33 21.14495 -157.93562 10447 ft 294 kts 234°
2026-05-07 13:33 21.13243 -157.95360 10636 ft 317 kts 233°
2026-05-07 13:33 21.11853 -157.97291 10819 ft 338 kts 233°
2026-05-07 13:33 21.10362 -157.99338 10974 ft 359 kts 233°
2026-05-07 13:34 21.08817 -158.01512 11295 ft 371 kts 236°
2026-05-07 13:34 21.06893 -158.05657 12335 ft 378 kts 251°
2026-05-07 13:34 21.06150 -158.08393 13023 ft 380 kts 258°
2026-05-07 13:35 21.05693 -158.11065 13714 ft 375 kts 259°
2026-05-07 13:35 21.04803 -158.13556 13965 ft 387 kts 237°
2026-05-07 13:35 21.02880 -158.15595 14414 ft 397 kts 214°
2026-05-07 13:35 21.00422 -158.16968 15032 ft 399 kts 207°
2026-05-07 13:36 20.97920 -158.18306 15560 ft 404 kts 209°
2026-05-07 13:36 20.95456 -158.19787 16070 ft 409 kts 212°